Preview of NWS' New Version of Forecast
This preview is not operational and should not be used for support decisions.

Regional Weather Roundup (RWR)

Issued by National Weather Service (NWS)

                            
000
ASUS45 KCYS 181910
RWRWY 

WYOMING REGIONAL WEATHER ROUNDUP
NATIONAL WEATHER SERVICE CHEYENNE WY
100 PM MDT TUE JUN 18 2019

NOTE:  "FAIR" INDICATES FEW OR NO CLOUDS BELOW 12,000 FEET
WITH NO SIGNIFICANT WEATHER AND/OR OBSTRUCTIONS TO VISIBILITY.

WYZ001-182000-
YELLOWSTONE NATIONAL PARK
  
CITY           SKY/WX    TMP DP  RH WIND       PRES   REMARKS
LK YELLOWSTONE NOT AVBL                                               
W YELLOWSTONE  NOT AVBL                                               

$$
WYZ002>013-054>058-071-098>099-182000-
NORTHERN WYOMING
  
CITY           SKY/WX    TMP DP  RH WIND       PRES   REMARKS
JACKSON        PTSUNNY   66  45  46 SW8       30.14F                  
CODY           PTSUNNY   70  50  49 VRB6      30.02F                  
GREYBULL       FAIR      75  48  38 SW10      29.96F                  
WORLAND        FAIR      75  48  38 CALM      29.97F                  
SHERIDAN       FAIR      73  50  44 W8        29.97F                  
BUFFALO        FAIR      69  47  45 W7        30.02F                  
GILLETTE       FAIR      69  55  60 E17G26    29.98S                  
NEWCASTLE      FAIR      70  46  43 SE10G18   30.01                   

$$
WYZ014>020-022>026-101>103-182000-
CENTRAL WYOMING
  
CITY           SKY/WX    TMP DP  RH WIND       PRES   REMARKS
BIG PINEY      PTSUNNY   64  43  46 SW9       30.16F                  
PINEDALE       FAIR      68  32  26 NW20G30   30.16                   
DUBOIS         FAIR      64  32  29 NW16G26   30.13                   
LANDER         FAIR      66  49  54 SE8       30.04F                  
RIVERTON       FAIR      73  44  35 VRB5G18   30.04F                  
CASPER         FAIR      69  47  45 W6        30.02F                  
DOUGLAS        CLOUDY    66  51  58 NW5       30.04F THUNDER          

$$
WYZ021-027>030-104>119-182000-
SOUTHERN WYOMING
  
CITY           SKY/WX    TMP DP  RH WIND       PRES   REMARKS
EVANSTON       FAIR      67  44  43 SW13G24   30.20F                  
KEMMERER       FAIR      66  41  39 SW18G24   30.20                   
FORT BRIDGER   MOCLDY    72  39  30 W15G21    30.22F                  
ROCK SPRINGS   FAIR      65  39  38 W8G16     30.14F                  
DIXON          FAIR      68  44  43 SW10G17   30.16F                  
RAWLINS        PTSUNNY   66  47  50 W13       30.12F                  
SARATOGA       MOCLDY    63  41  45 W8        30.15F                  
LARAMIE        TSTM      50  45  83 W15       30.16R                  
CHEYENNE       CLOUDY    59  52  77 SE6       30.10F                  
TORRINGTON     CLOUDY    67  56  67 SE9       30.01F                  
PINE BLUFFS    CLOUDY    64  54  68 E6        30.07F                  

$$